GLOBALSTAR M097 [+]

Last updated on Fri Dec 29 2023 00:02:57 GMT+0000 (Coordinated Universal Time)

1 39072U 13005A 23362.49370662 -.00000115 00000+0 -65198-4 0 9994 2 39072 52.0044 108.1810 0001082 121.6420 238.4552 12.62273549503114

Satellite not in orbit

GLOBALSTAR M097 [+]